This is the latest recevied weather packets stored in our database for station/object KA1JKB. If no packets are shown the sender has not sent any weather packets the latest 10 day(s).
| Time | Temp. | Humidity | Pressure | Rain* | Wind** | Luminosity | Snow |
|---|---|---|---|---|---|---|---|
| 1777762106 | 8.33° C | 50% | 1013.7 hPa | 0 mm | - | 83 W/m² | - |
| 1777761802 | 8.33° C | 52% | 1013.6 hPa | 0 mm | - | 93 W/m² | - |
| 1777761500 | 8.33° C | 54% | 1013.5 hPa | 0 mm | - | 100 W/m² | - |
| 1777761197 | 7.78° C | 52% | 1013.5 hPa | 0 mm | - | 84 W/m² | - |
| 1777760895 | 7.78° C | 51% | 1013.7 hPa | 0 mm | - | 60 W/m² | - |
| 1777760592 | 7.78° C | 52% | 1013.6 hPa | 0 mm | - | 51 W/m² | - |
| 1777760288 | 8.33° C | 51% | 1013.5 hPa | 0 mm | - | 48 W/m² | - |
| 1777759984 | 8.33° C | 53% | 1013.6 hPa | 0 mm | - | 48 W/m² | - |
| 1777759681 | 8.33° C | 50% | 1013.6 hPa | 0 mm | - | 62 W/m² | - |
| 1777759377 | 8.33° C | 51% | 1013.4 hPa | 0 mm | - | 78 W/m² | - |
| 1777759074 | 8.33° C | 50% | 1013.4 hPa | 0 mm | - | 105 W/m² | - |
| 1777758771 | 8.33° C | 49% | 1013.3 hPa | 0 mm | - | 136 W/m² | - |
| 1777758468 | 8.33° C | 50% | 1013.5 hPa | 0 mm | - | 139 W/m² | - |
| 1777758165 | 8.33° C | 49% | 1013.4 hPa | 0 mm | - | 120 W/m² | - |
| 1777757862 | 9.44° C | 49% | 1013.6 hPa | 0 mm | - | 119 W/m² | - |
| 1777757559 | 10° C | 45% | 1013.6 hPa | 0 mm | - | 163 W/m² | - |
| 1777757258 | 10.56° C | 43% | 1013.5 hPa | 0 mm | - | 407 W/m² | - |
| 1777756956 | 10° C | 46% | 1013.4 hPa | 0 mm | - | 618 W/m² | - |
| 1777756652 | 9.44° C | 48% | 1013.4 hPa | 0 mm | - | 206 W/m² | - |
| 1777756349 | 10° C | 48% | 1013.4 hPa | 0 mm | - | 150 W/m² | - |
| 1777756046 | 10.56° C | 44% | 1013.6 hPa | 0 mm | - | 229 W/m² | - |
| 1777755743 | 10° C | 50% | 1013.4 hPa | 0 mm | - | 547 W/m² | - |
| 1777755440 | 8.33° C | 48% | 1013.7 hPa | 0 mm | - | 452 W/m² | - |
| 1777755136 | 8.33° C | 50% | 1013.6 hPa | 0 mm | - | 197 W/m² | - |
| 1777754834 | 7.78° C | 48% | 1013.8 hPa | 0 mm | - | 127 W/m² | - |
* Rain latest hour (hover to see other rain measurements)
** Current wind speed in m/s (hover to see current wind gust speed)